(31) Euphrosyne
ephemeris date magn radius delta ra dec elong phase
Opposition4 May 202511.93.534 AU2.535 AU14h35m-24°53'170.8°2.6°
Today2 Jul 202512.93.620 AU3.057 AU14h00m-24°45'116.0°14.6°
(31) Euphrosyne - 2025-07-02
astro.vanbuitenen.nl


 
-1 year
-1 month
-1 day
Now
+1 day
+1 month
+1 year

The interactive orbit chart above shows the body's path through the solar system and its position at the given date. Green and blue lines are shown perpendicular to the ecliptic plane: Green if the path is above the ecliptic plane, blue if it is below. (Left-click and drag to rotate the view; Right-click and drag to move the view; Use scroll wheel to zoom in our out.)

The orbital elements of Euphrosyne are:

            e (Eccentricity)                : 0.2159829
            a (Semimajor axis)              : 3.1610744
            i (Inclination)                 : 26.31587
            Ω (Longitude of ascending node) : 30.80052
            ω (Argument of perihelion)      : 61.92662
            M (Mean anomaly)                : 112.87325
            Epoch                           : 2025 May 05

            L (Longitude of perihelion)     : 90.04707
            B (Latitude of perihelion)      : 23.02676
            P (Orbital period in years)     : 5.62            
        

The light curve chart below shows the estimated development of the minor planet's magnitude.


The all-sky chart below shows the path of the minor planet over the same period as the light curve. The current position is marked yellow.





The following chart shows the path of the minor planet in the next few days. The field of view is optimized for (~10x50) binoculars and finderscopes. A more printer-friendly version of the same chart can be found below.




Ephemerides:
Date       Time       RA (2000)    DEC (2000)    delta   radius  elong  phase   PA    magn
2025-07-02 00:00 UT   14 00 23.1   -24 45 32     3.057    3.620  116.0   14.6   105   12.9 
2025-07-02 03:12 UT   14 00 22.8   -24 45 37     3.059    3.620  115.9   14.6   105   12.9 
2025-07-03 00:00 UT   14 00 21.8   -24 46 15     3.071    3.621  115.1   14.7   105   12.9 
2025-07-04 00:00 UT   14 00 21.8   -24 47 02     3.086    3.622  114.2   14.8   105   12.9 
2025-07-05 00:00 UT   14 00 23.0   -24 47 53     3.100    3.624  113.2   14.9   105   12.9 
2025-07-06 00:00 UT   14 00 25.3   -24 48 48     3.115    3.625  112.3   15.0   106   12.9 
2025-07-07 00:00 UT   14 00 28.9   -24 49 47     3.130    3.626  111.4   15.1   106   12.9 
2025-07-08 00:00 UT   14 00 33.6   -24 50 50     3.145    3.628  110.5   15.2   106   12.9 
2025-07-09 00:00 UT   14 00 39.5   -24 51 58     3.160    3.629  109.6   15.3   106   13.0 
2025-07-10 00:00 UT   14 00 46.5   -24 53 09     3.175    3.630  108.7   15.4   107   13.0 
2025-07-11 00:00 UT   14 00 54.7   -24 54 25     3.190    3.632  107.8   15.5   107   13.0 
2025-07-12 00:00 UT   14 01 04.0   -24 55 45     3.205    3.633  106.9   15.5   107   13.0 
2025-07-13 00:00 UT   14 01 14.4   -24 57 09     3.220    3.634  106.0   15.6   107   13.0 
2025-07-14 00:00 UT   14 01 26.0   -24 58 37     3.235    3.636  105.1   15.7   107   13.0 
2025-07-15 00:00 UT   14 01 38.6   -25 00 09     3.251    3.637  104.3   15.7   107   13.0 
2025-07-16 00:00 UT   14 01 52.3   -25 01 46     3.266    3.638  103.4   15.8   108   13.1 
2025-07-17 00:00 UT   14 02 07.1   -25 03 26     3.282    3.640  102.5   15.8   108   13.1 
2025-07-18 00:00 UT   14 02 22.9   -25 05 11     3.297    3.641  101.6   15.9   108   13.1 
2025-07-19 00:00 UT   14 02 39.8   -25 06 60     3.313    3.642  100.8   15.9   108   13.1 
2025-07-20 00:00 UT   14 02 57.8   -25 08 53     3.328    3.643   99.9   15.9   108   13.1 
2025-07-21 00:00 UT   14 03 16.7   -25 10 50     3.344    3.645   99.1   16.0   109   13.1 
2025-07-22 00:00 UT   14 03 36.8   -25 12 52     3.359    3.646   98.2   16.0   109   13.1 
2025-07-23 00:00 UT   14 03 57.8   -25 14 57     3.375    3.647   97.4   16.0   109   13.1 
2025-07-24 00:00 UT   14 04 19.8   -25 17 07     3.391    3.649   96.5   16.1   109   13.2 
2025-07-25 00:00 UT   14 04 42.8   -25 19 21     3.407    3.650   95.7   16.1   109   13.2 
2025-07-26 00:00 UT   14 05 06.8   -25 21 39     3.422    3.651   94.8   16.1   109   13.2 
2025-07-27 00:00 UT   14 05 31.8   -25 24 01     3.438    3.652   94.0   16.1   109   13.2 
2025-07-28 00:00 UT   14 05 57.7   -25 26 27     3.454    3.654   93.2   16.1   110   13.2 
2025-07-29 00:00 UT   14 06 24.6   -25 28 57     3.470    3.655   92.4   16.1   110   13.2 
2025-07-30 00:00 UT   14 06 52.4   -25 31 31     3.485    3.656   91.5   16.1   110   13.2 
2025-07-31 00:00 UT   14 07 21.2   -25 34 09     3.501    3.657   90.7   16.1   110   13.2 
2025-08-01 00:00 UT   14 07 50.8   -25 36 51     3.517    3.659   89.9   16.1   110   13.2 


    Terminology:
            
    delta:  distance between minor planet and earth in AU
    radius: distance between minor planet and sun in AU
    magn:   magnitude (brightness) estimate    
    ra:     right ascension in hours (24h = 360deg)
    dec:    declination in degrees
    elong:  elongation in degrees (angle sun-earth-minor planet)    
    phase:  phase angle in degrees (angle sun-minor planet-earth)        
    AU:     Astronomical Unit (mean distance between earth and sun: 149597870.7 km
    

Orbital elements provided by the MPC (Minor Planet Center).
Calculations by a modified version of AAPlus, a C# implementation of the AA+ project by PJ Naughter from the algorithms presented in the book "Astronomical Algorithms" by Jean Meeus.
NGC2000 dso catalog and star labels from VizieR as provided by the Strasbourg astronomical Data Center.
Tycho2 catalog from the ESO archive.